Location: Callao
(39.8979°N, 113.7141°W)
Time: 17:12:11
(UTC+00:00)

AO-91 - Pass Details

Date: 15 May 2021
Orbit: 453 x 808 km, 97.7° (Epoch: 15 June)

Event Time Altitude Azimuth Distance (km) Brightness Sun altitude
Rises 06:49:17 0° 16° (NNE) 2,760 ? -30.4°
Reaches altitude 10° 06:51:21 10° 20° (NNE) 1,912 ? -30.4°
Enters shadow 06:53:19 27° 29° (NNE) 1,166 ? -30.5°
